| time (UTC) | temp C | wind direction | speed KPH | gust KPH | rain 1hr cm | rain 24hr cm | rain mn cm | humidity % | barometer mb |
| 20260502130103 | 6 | 113 | 0.0 | 0.0 | 0.00 | 0.00 | 0.00 | 68 | 1023.1 |
| 20260502123004 | 4 | 113 | 0.0 | 0.0 | 0.00 | 0.00 | 0.00 | 88 | 1022.9 |
| 20260502121542 | 1 | 113 | 0.0 | 0.0 | 0.00 | 0.00 | 0.00 | 91 | 1022.7 |
| 20260502114601 | 1 | 113 | 0.0 | 0.0 | 0.00 | 0.00 | 0.00 | 90 | 1022.3 |
| 20260502114502 | 1 | 113 | 0.0 | 0.0 | 0.00 | 0.00 | 0.00 | 90 | 1022.3 |
| 20260502113036 | 1 | 113 | 0.0 | 0.0 | 0.00 | 0.00 | 0.00 | 87 | 1022.2 |
| 20260502111520 | 1 | 113 | 0.0 | 0.0 | 0.00 | 0.00 | 0.00 | 84 | 1022.0 |
| 20260502110006 | 1 | 113 | 0.0 | 0.0 | 0.00 | 0.00 | 0.00 | 85 | 1022.0 |
| 20260502104536 | 2 | 113 | 0.0 | 0.0 | 0.00 | 0.00 | 0.00 | 83 | 1021.9 |
| 20260502103004 | 2 | 113 | 0.0 | 0.0 | 0.00 | 0.00 | 0.00 | 82 | 1021.7 |
| 20260502101549 | 2 | 113 | 0.0 | 0.0 | 0.00 | 0.00 | 0.00 | 82 | 1021.6 |
| 20260502071526 | 5 | 113 | 0.0 | 0.0 | 0.00 | 0.00 | 0.00 | 72 | 1021.3 |
| 20260502070044 | 5 | 113 | 0.0 | 0.0 | 0.00 | 0.00 | 0.00 | 70 | 1021.2 |
| 20260502064524 | 5 | 113 | 0.0 | 0.0 | 0.00 | 0.00 | 0.00 | 66 | 1021.2 |
| 20260502063050 | 6 | 113 | 0.0 | 0.0 | 0.00 | 0.00 | 0.00 | 64 | 1021.0 |
| 20260502061512 | 6 | 113 | 0.0 | 0.0 | 0.00 | 0.00 | 0.00 | 64 | 1020.9 |
| 20260502060046 | 6 | 113 | 0.0 | 0.0 | 0.00 | 0.00 | 0.00 | 64 | 1020.9 |
| 20260502054557 | 6 | 113 | 0.0 | 0.0 | 0.00 | 0.00 | 0.00 | 63 | 1020.7 |
| 20260502053033 | 6 | 113 | 0.0 | 0.0 | 0.00 | 0.00 | 0.00 | 63 | 1020.6 |
| 20260502051516 | 7 | 113 | 0.0 | 0.0 | 0.00 | 0.00 | 0.00 | 60 | 1020.6 |
| 20260502050051 | 7 | 113 | 0.0 | 0.0 | 0.00 | 0.00 | 0.00 | 57 | 1020.6 |
| 20260502044537 | 8 | 113 | 0.0 | 0.0 | 0.00 | 0.00 | 0.00 | 56 | 1020.5 |
| 20260502043015 | 8 | 112 | 0.0 | 0.0 | 0.00 | 0.00 | 0.00 | 55 | 1020.4 |
| 20260502041526 | 9 | 113 | 0.0 | 0.0 | 0.00 | 0.00 | 0.00 | 54 | 1020.3 |
| 20260502040108 | 9 | 108 | 0.0 | 0.0 | 0.00 | 0.00 | 0.00 | 54 | 1020.1 |
| 20260502034541 | 10 | 108 | 0.0 | 0.0 | 0.00 | 0.00 | 0.00 | 53 | 1020.1 |
| 20260502033051 | 10 | 108 | 0.0 | 0.0 | 0.00 | 0.00 | 0.00 | 52 | 1020.1 |
| 20260502031539 | 11 | 108 | 0.0 | 0.0 | 0.00 | 0.00 | 0.00 | 49 | 1019.9 |
| 20260502030027 | 11 | 124 | 0.0 | 0.0 | 0.00 | 0.00 | 0.00 | 49 | 1019.7 |
| 20260502024550 | 12 | 118 | 0.0 | 0.0 | 0.00 | 0.00 | 0.00 | 49 | 1019.5 |
| 20260502023039 | 12 | 128 | 0.0 | 0.0 | 0.00 | 0.00 | 0.00 | 48 | 1019.1 |
| 20260502021519 | 12 | 114 | 0.0 | 0.0 | 0.00 | 0.00 | 0.00 | 47 | 1018.8 |
| 20260502020023 | 12 | 110 | 0.0 | 0.0 | 0.00 | 0.00 | 0.00 | 48 | 1018.5 |
| 20260502014522 | 13 | 110 | 0.0 | 0.0 | 0.00 | 0.00 | 0.00 | 46 | 1018.1 |
| 20260502013016 | 14 | 110 | 0.0 | 0.0 | 0.00 | 0.00 | 0.00 | 44 | 1017.8 |
| 20260502011606 | 15 | 110 | 0.0 | 0.0 | 0.00 | 0.00 | 0.00 | 40 | 1017.6 |
| 20260502010053 | 16 | 110 | 0.0 | 0.0 | 0.00 | 0.00 | 0.00 | 38 | 1017.6 |
| 20260502004535 | 17 | 122 | 0.0 | 0.0 | 0.00 | 0.00 | 0.00 | 34 | 1017.5 |
| 20260502003017 | 18 | 111 | 0.0 | 0.0 | 0.00 | 0.00 | 0.00 | 32 | 1017.4 |
| 20260502001631 | 18 | 99 | 0.0 | 1.6 | 0.00 | 0.00 | 0.00 | 33 | 1017.2 |
| 20260502000039 | 18 | 120 | 0.0 | 6.4 | 0.00 | 0.00 | 0.00 | 31 | 1017.2 |
| 20260501234511 | 19 | 100 | 0.0 | 0.0 | 0.00 | 0.00 | 0.00 | 30 | 1017.0 |
| 20260501233005 | 20 | 134 | 0.0 | 1.6 | 0.00 | 0.00 | 0.00 | 31 | 1016.9 |
| 20260501231543 | 20 | 227 | 0.0 | 0.0 | 0.00 | 0.00 | 0.00 | 29 | 1016.9 |
| 20260501230027 | 20 | 105 | 0.0 | 0.0 | 0.00 | 0.00 | 0.00 | 29 | 1016.7 |
| 20260501224508 | 20 | 126 | 0.0 | 6.4 | 0.00 | 0.00 | 0.00 | 31 | 1016.8 |
| 20260501223020 | 20 | 128 | 0.0 | 6.4 | 0.00 | 0.00 | 0.00 | 28 | 1016.8 |
| 20260501221552 | 20 | 165 | 0.0 | 14.5 | 0.00 | 0.00 | 0.00 | 29 | 1017.0 |
| 20260501220047 | 20 | 117 | 1.6 | 12.9 | 0.00 | 0.00 | 0.00 | 31 | 1016.9 |
| 20260501214509 | 20 | 123 | 0.0 | 11.3 | 0.00 | 0.00 | 0.00 | 31 | 1017.1 |
| 20260501213039 | 20 | 267 | 0.0 | 11.3 | 0.00 | 0.00 | 0.00 | 35 | 1017.0 |
| 20260501211521 | 19 | 96 | 0.0 | 0.0 | 0.00 | 0.00 | 0.00 | 37 | 1017.2 |
| 20260501210032 | 19 | 169 | 0.0 | 1.6 | 0.00 | 0.00 | 0.00 | 35 | 1017.5 |
| 20260501204503 | 20 | 94 | 0.0 | 8.0 | 0.00 | 0.00 | 0.00 | 41 | 1017.7 |
| 20260501203043 | 18 | 105 | 1.6 | 16.1 | 0.00 | 0.00 | 0.00 | 35 | 1017.9 |
| 20260501201521 | 19 | 108 | 0.0 | 17.7 | 0.00 | 0.00 | 0.00 | 36 | 1018.2 |
| 20260501200047 | 18 | 137 | 0.0 | 9.7 | 0.00 | 0.00 | 0.00 | 41 | 1018.3 |
| 20260501194532 | 18 | 51 | 1.6 | 20.9 | 0.00 | 0.00 | 0.00 | 43 | 1018.4 |
| 20260501193043 | 18 | 147 | 0.0 | 8.0 | 0.00 | 0.00 | 0.00 | 39 | 1018.7 |
| 20260501191514 | 18 | 119 | 0.0 | 8.0 | 0.00 | 0.00 | 0.00 | 40 | 1018.8 |
| 20260501190019 | 18 | 91 | 0.0 | 6.4 | 0.00 | 0.00 | 0.00 | 39 | 1018.8 |
| 20260501184604 | 18 | 83 | 3.2 | 16.1 | 0.00 | 0.00 | 0.00 | 39 | 1018.9 |
| 20260501184508 | 18 | 101 | 1.6 | 16.1 | 0.00 | 0.00 | 0.00 | 40 | 1018.9 |
| 20260501183012 | 18 | 103 | 0.0 | 0.0 | 0.00 | 0.00 | 0.00 | 38 | 1018.9 |
| 20260501181544 | 18 | 145 | 0.0 | 6.4 | 0.00 | 0.00 | 0.00 | 37 | 1019.0 |
| 20260501180037 | 17 | 189 | 1.6 | 9.7 | 0.00 | 0.00 | 0.00 | 39 | 1019.1 |
| 20260501174515 | 18 | 105 | 0.0 | 14.5 | 0.00 | 0.00 | 0.00 | 37 | 1019.1 |
| 20260501173052 | 18 | 114 | 0.0 | 6.4 | 0.00 | 0.00 | 0.00 | 36 | 1019.2 |
| 20260501171536 | 17 | 132 | 3.2 | 20.9 | 0.00 | 0.00 | 0.00 | 39 | 1019.6 |
| 20260501170014 | 17 | 91 | 0.0 | 6.4 | 0.00 | 0.00 | 0.00 | 38 | 1019.6 |
| 20260501164548 | 16 | 123 | 0.0 | 17.7 | 0.00 | 0.00 | 0.00 | 41 | 1019.6 |
| 20260501163006 | 16 | 113 | 0.0 | 16.1 | 0.00 | 0.00 | 0.00 | 40 | 1019.6 |
| 20260501161555 | 16 | 111 | 0.0 | 1.6 | 0.00 | 0.00 | 0.00 | 45 | 1019.6 |
| 20260501154524 | 14 | 107 | 0.0 | 1.6 | 0.00 | 0.00 | 0.00 | 46 | 1019.6 |
| 20260501153008 | 13 | 119 | 0.0 | 1.6 | 0.00 | 0.00 | 0.00 | 47 | 1019.6 |
| 20260501151554 | 13 | 104 | 0.0 | 1.6 | 0.00 | 0.00 | 0.00 | 48 | 1019.7 |
| 20260501150036 | 13 | 123 | 0.0 | 3.2 | 0.00 | 0.00 | 0.00 | 52 | 1019.7 |
| 20260501144513 | 12 | 103 | 0.0 | 1.6 | 0.00 | 0.00 | 0.00 | 56 | 1019.9 |
| 20260501143055 | 12 | 100 | 0.0 | 1.6 | 0.00 | 0.00 | 0.00 | 59 | 1020.0 |
| 20260501141536 | 11 | 124 | 0.0 | 1.6 | 0.00 | 0.00 | 0.00 | 63 | 1019.8 |
| 20260501140018 | 10 | 96 | 0.0 | 0.0 | 0.00 | 0.00 | 0.00 | 71 | 1019.6 |
| 20260501134557 | 9 | 110 | 0.0 | 0.0 | 0.00 | 0.00 | 0.00 | 74 | 1019.5 |